FW8226 Weather Reports


time (UTC)temp
F
wind
direction
speed
knots
gust
knots
rain 1hr
in
rain 24hr
in
rain mn
in
humidity
%
barometer
mb
20260504235100 61 46 7.8 8.7 0.00 0.00 0.00 37 1005.7
20260504234557 62 44 5.2 6.1 0.00 0.00 0.00 36 1005.9
20260504234054 62 51 7.8 8.7 0.00 0.00 0.00 36 1005.7
20260504233549 62 43 9.6 12.2 0.00 0.00 0.00 35 1005.6
20260504233046 62 60 8.7 14.8 0.00 0.00 0.00 35 1005.5
20260504232544 62 32 7.8 9.6 0.00 0.00 0.00 35 1005.3
20260504232041 62 44 7.8 8.7 0.00 0.00 0.00 35 1005.4
20260504231538 62 42 6.1 7.8 0.00 0.00 0.00 35 1005.5
20260504231034 63 48 6.1 8.7 0.00 0.00 0.00 35 1005.6
20260504230530 63 57 7.8 9.6 0.00 0.00 0.00 35 1005.9
20260504230029 63 56 7.0 7.8 0.00 0.00 0.00 34 1005.5
20260504225526 63 37 6.1 7.8 0.00 0.00 0.00 34 1005.5
20260504225023 63 51 6.1 8.7 0.00 0.00 0.00 34 1005.6
20260504224519 63 43 7.8 9.6 0.00 0.00 0.00 34 1005.2
20260504224017 63 41 5.2 6.1 0.00 0.00 0.00 34 1005.4
20260504223513 63 35 8.7 11.3 0.00 0.00 0.00 34 1005.3
20260504223009 63 44 9.6 12.2 0.00 0.00 0.00 34 1004.9
20260504222506 63 42 9.6 12.2 0.00 0.00 0.00 33 1005.1
20260504222004 63 45 9.6 11.3 0.00 0.00 0.00 34 1004.7
20260504221501 64 34 7.8 8.7 0.00 0.00 0.00 33 1005.1
20260504220958 64 55 7.8 8.7 0.00 0.00 0.00 33 1005.1
20260504220454 64 38 7.8 11.3 0.00 0.00 0.00 33 1005.2
20260504215951 64 29 9.6 11.3 0.00 0.00 0.00 33 1005.1
20260504215447 64 53 7.8 9.6 0.00 0.00 0.00 32 1005.1
20260504214944 64 57 7.0 12.2 0.00 0.00 0.00 32 1005.3
20260504214441 65 35 7.0 8.7 0.00 0.00 0.00 32 1005.1
20260504213937 65 46 7.8 11.3 0.00 0.00 0.00 32 1005.2
20260504213433 65 50 10.4 12.2 0.00 0.00 0.00 32 1005.1
20260504212931 65 39 7.8 11.3 0.00 0.00 0.00 32 1005.1
20260504212426 65 55 9.6 12.2 0.00 0.00 0.00 32 1005.4
20260504211925 65 50 9.6 13.0 0.00 0.00 0.00 31 1005.1
20260504211420 65 41 9.6 13.0 0.00 0.00 0.00 31 1004.9
20260504210918 65 47 11.3 13.9 0.00 0.00 0.00 31 1005.2
20260504210415 66 39 8.7 11.3 0.00 0.00 0.00 31 1004.8
20260504205912 65 35 8.7 9.6 0.00 0.00 0.00 31 1005.1
20260504205410 66 47 10.4 13.0 0.00 0.00 0.00 30 1004.8
20260504204908 66 29 9.6 11.3 0.00 0.00 0.00 30 1004.6
20260504204406 67 31 10.4 12.2 0.00 0.00 0.00 31 1004.6
20260504203905 67 37 8.7 11.3 0.00 0.00 0.00 30 1004.8
20260504203402 66 42 7.8 11.3 0.00 0.00 0.00 31 1004.9
20260504202857 69 39 7.8 8.7 0.00 0.00 0.00 30 1004.9
20260504202355 69 54 11.3 13.0 0.00 0.00 0.00 28 1004.7
20260504201851 68 50 8.7 9.6 0.00 0.00 0.00 29 1004.9
20260504201349 68 50 9.6 12.2 0.00 0.00 0.00 30 1005.1
20260504200846 69 45 8.7 11.3 0.00 0.00 0.00 30 1004.9
20260504200343 69 29 10.4 13.0 0.00 0.00 0.00 29 1004.7
20260504195839 69 32 18.2 21.7 0.00 0.00 0.00 30 1004.5
20260504195334 69 54 11.3 13.0 0.00 0.00 0.00 29 1004.6
20260504194832 69 29 11.3 14.8 0.00 0.00 0.00 28 1004.5
20260504194327 69 33 9.6 11.3 0.00 0.00 0.00 28 1004.9
20260504193823 69 44 11.3 13.0 0.00 0.00 0.00 29 1004.9
20260504193321 70 31 14.8 17.4 0.00 0.00 0.00 28 1004.7
20260504192820 70 38 7.8 12.2 0.00 0.00 0.00 30 1004.7
20260504192317 70 34 10.4 12.2 0.00 0.00 0.00 30 1005.1
20260504191816 70 31 11.3 13.9 0.00 0.00 0.00 29 1005.1
20260504191313 68 34 17.4 20.0 0.00 0.00 0.00 30 1004.8
20260504190808 69 32 8.7 11.3 0.00 0.00 0.00 31 1004.8
20260504190304 70 27 13.0 15.6 0.00 0.00 0.00 31 1004.8
20260504185801 69 36 13.9 17.4 0.00 0.00 0.00 31 1004.6
20260504185258 69 32 13.0 14.8 0.00 0.00 0.00 32 1004.8
20260504184754 70 32 13.0 17.4 0.00 0.00 0.00 31 1004.7
20260504184250 69 33 16.5 20.0 0.00 0.00 0.00 31 1004.7
20260504183746 69 47 6.1 7.8 0.00 0.00 0.00 30 1004.6
20260504183243 72 42 7.0 9.6 0.00 0.00 0.00 28 1004.8
20260504182741 72 40 4.3 6.1 0.00 0.00 0.00 27 1004.7
20260504182238 69 51 7.8 11.3 0.00 0.00 0.00 30 1004.5
20260504181736 69 33 10.4 13.9 0.00 0.00 0.00 30 1004.5
20260504181233 72 43 8.7 9.6 0.00 0.00 0.00 28 1004.4
20260504180732 71 36 6.1 7.8 0.00 0.00 0.00 26 1004.4
20260504180231 68 39 7.8 8.7 0.00 0.00 0.00 29 1004.4
20260504175728 69 32 11.3 13.9 0.00 0.00 0.00 28 1004.0
20260504175224 70 42 8.7 12.2 0.00 0.00 0.00 27 1004.1
20260504174722 77 37 1.7 4.3 0.00 0.00 0.00 21 1004.4
20260504174220 77 64 0.0 0.9 0.00 0.00 0.00 21 1003.9
20260504173716 76 224 0.0 1.7 0.00 0.00 0.00 21 1004.0
20260504173213 73 59 0.0 0.0 0.00 0.00 0.00 22 1004.0
20260504172709 73 33 0.9 1.7 0.00 0.00 0.00 22 1003.9
20260504172206 72 111 5.2 7.0 0.00 0.00 0.00 23 1004.0
20260504171703 73 51 6.1 11.3 0.00 0.00 0.00 23 1004.0
20260504171200 71 111 0.0 0.0 0.00 0.00 0.00 23 1003.9
20260504170656 70 124 2.6 5.2 0.00 0.00 0.00 24 1003.8
20260504170154 72 136 5.2 6.1 0.00 0.00 0.00 24 1003.9
20260504160112 73 31 0.9 2.6 0.00 0.00 0.00 22 1004.3
20260504151039 68 46 0.0 0.0 0.00 0.00 0.00 29 1004.3
20260504150536 67 10 0.0 0.9 0.00 0.00 0.00 28 1004.6
20260504141002 59 335 3.5 4.3 0.00 0.00 0.00 37 1004.9
20260504140459 58 312 4.3 5.2 0.00 0.00 0.00 38 1004.9
20260504130424 46 324 4.3 5.2 0.00 0.00 0.00 51 1005.2
20260504110311 36 221 1.7 1.7 0.00 0.00 0.00 66 1004.4
20260504100228 40 245 2.6 2.6 0.00 0.00 0.00 62 1004.7
20260504081622 47 202 4.3 5.2 0.00 0.00 0.00 53 1005.5
20260504081117 46 198 2.6 2.6 0.00 0.00 0.00 56 1005.9
20260504080614 48 204 2.6 2.6 0.00 0.00 0.00 57 1005.6
20260504080111 47 178 5.2 5.2 0.00 0.00 0.00 53 1005.6
20260504050427 48 55 2.6 2.6 0.00 0.00 0.00 56 1007.1
20260504045924 48 44 0.0 0.9 0.00 0.00 0.00 56 1007.2
20260504045420 48 46 0.0 0.0 0.00 0.00 0.00 56 1007.3
20260504044916 47 38 0.0 0.0 0.00 0.00 0.00 56 1007.0
20260504044414 49 49 0.9 0.9 0.00 0.00 0.00 55 1007.1
20260504043911 50 49 4.3 4.3 0.00 0.00 0.00 53 1007.5
20260504043408 49 54 5.2 6.1 0.00 0.00 0.00 54 1007.6
20260504042906 50 53 5.2 6.1 0.00 0.00 0.00 52 1007.6
20260504042402 50 57 6.1 6.1 0.00 0.00 0.00 53 1007.6
20260504041858 50 64 2.6 4.3 0.00 0.00 0.00 52 1007.3
20260504041354 51 67 3.5 4.3 0.00 0.00 0.00 51 1007.5
20260504040850 52 85 2.6 2.6 0.00 0.00 0.00 50 1007.9
20260504040348 51 80 2.6 4.3 0.00 0.00 0.00 51 1007.6
20260504035844 51 103 2.6 2.6 0.00 0.00 0.00 51 1007.8
20260504035342 51 92 3.5 4.3 0.00 0.00 0.00 50 1007.8
20260504034838 53 130 4.3 6.1 0.00 0.00 0.00 48 1007.9
20260504034336 53 70 0.0 0.9 0.00 0.00 0.00 49 1007.9
20260504033833 53 62 2.6 2.6 0.00 0.00 0.00 48 1007.9
20260504033331 53 67 2.6 2.6 0.00 0.00 0.00 49 1008.0
20260504032827 53 58 4.3 6.1 0.00 0.00 0.00 48 1008.0
20260504032324 54 56 3.5 4.3 0.00 0.00 0.00 47 1008.3
20260504031821 54 67 2.6 4.3 0.00 0.00 0.00 46 1008.0
20260504031319 53 73 1.7 2.6 0.00 0.00 0.00 47 1008.1
20260504030815 54 50 2.6 2.6 0.00 0.00 0.00 46 1008.1
20260504030312 56 45 3.5 5.2 0.00 0.00 0.00 45 1008.0
20260504025808 56 50 4.3 6.1 0.00 0.00 0.00 44 1008.0
20260504025305 57 26 4.3 5.2 0.00 0.00 0.00 43 1007.6
20260504024801 57 41 4.3 7.0 0.00 0.00 0.00 42 1007.7
20260504024258 58 37 4.3 6.1 0.00 0.00 0.00 41 1007.8
20260504023755 59 41 6.1 7.8 0.00 0.00 0.00 40 1007.8
20260504023252 60 27 7.0 9.6 0.00 0.00 0.00 37 1007.7
20260504022747 61 46 5.2 7.8 0.00 0.00 0.00 35 1007.8
20260504022244 59 23 13.9 18.2 0.00 0.00 0.00 33 1007.5
20260504021741 58 5 2.6 2.6 0.00 0.00 0.00 33 1007.5
20260504021238 58 358 3.5 5.2 0.00 0.00 0.00 33 1007.5
20260504020735 59 344 3.5 4.3 0.00 0.00 0.00 32 1007.3
20260504020232 64 349 1.7 1.7 0.00 0.00 0.00 30 1007.1
20260504015728 60 1 3.5 4.3 0.00 0.00 0.00 30 1007.1
20260504015224 62 343 2.6 2.6 0.00 0.00 0.00 30 1006.9
20260504014720 64 87 0.0 0.0 0.00 0.00 0.00 28 1006.8
20260504014217 65 83 0.9 1.7 0.00 0.00 0.00 28 1006.8
20260504013715 65 77 0.9 0.9 0.00 0.00 0.00 28 1006.8
20260504013212 66 79 0.9 0.9 0.00 0.00 0.00 27 1006.7
20260504012709 66 71 0.9 0.9 0.00 0.00 0.00 27 1006.7
20260504012207 66 106 0.0 0.9 0.00 0.00 0.00 27 1006.5
20260504011703 67 125 1.7 1.7 0.00 0.00 0.00 27 1006.7
20260504011200 67 101 0.9 1.7 0.00 0.00 0.00 26 1006.7
20260504010656 67 85 0.9 1.7 0.00 0.00 0.00 26 1006.9
20260504010151 67 109 2.6 2.6 0.00 0.00 0.00 26 1006.5
20260504005649 68 115 2.6 4.3 0.00 0.00 0.00 26 1006.4
20260504005145 68 115 2.6 2.6 0.00 0.00 0.00 25 1006.8
20260504004643 68 146 4.3 5.2 0.00 0.00 0.00 25 1006.8
20260504004140 69 157 5.2 6.1 0.00 0.00 0.00 25 1006.7
20260504003636 69 118 3.5 5.2 0.00 0.00 0.00 25 1006.8
20260504003133 70 143 7.8 9.6 0.00 0.00 0.00 25 1006.4
20260504002630 70 153 6.1 7.8 0.00 0.00 0.00 24 1006.9
20260504002128 69 181 5.2 6.1 0.00 0.00 0.00 24 1006.8
20260504001626 70 151 7.0 8.7 0.00 0.00 0.00 24 1006.9
20260504001121 69 144 6.1 7.0 0.00 0.00 0.00 24 1006.9
20260504000619 70 184 4.3 6.1 0.00 0.00 0.00 25 1007.1
20260504000116 70 138 6.1 7.8 0.00 0.00 0.00 24 1007.1
20260503235614 69 132 7.0 7.0 0.00 0.00 0.00 25 1007.1